Tracking 30101 objects as of 14-Dec-2024
HD Live streaming from Space Station
objects crossing your sky now

INTELSAT 602

Track INTELSAT 602 now!
INTELSAT 602 is classified as:


NORAD ID: 20315
Int'l Code: 1989-087A
Perigee: 36,122.1 km
Apogee: 36,183.7 km
Inclination: 14.0 °
Period: 1,454.5 minutes
Semi major axis: 42523 km
RCS: 19.9526 m2 (large)
Launch date: October 27, 1989
Source: International Telecommunications Satellite Organization (ITSO)
Launch site: FRENCH GUIANA (FRGUI)

Inclined orbit; Indian Ocean region; C-band and Ku-band broadcasting.
Your satellite tracking list
Your tracking list is empty




NASA's NSSDC Master Catalog

Two Line Element Set (TLE):
1 20315U 89087A   24348.54101681 -.00000031  00000-0  00000-0 0  9995
2 20315  14.0138  11.4617 0007247 206.2486 148.8049  0.99004128125867
Source of the keplerian elements: AFSPC